GSAT0207 (GALILEO 15) (41859 NORAD) Tracking and Keplerian Element Data

This shows tracking and keplerian element data for the satellite.

Feedback or suggestion? Click here.




ElementValue
Catalog41859
NameGSAT0207 (GALILEO 15)
Epoch Orbit3620
Epoch Day268.46039758
Epoch Year2022
RAAN138.81
Inclination54.8408
Eccentricity0.0002682
Argument of Perigee309.4123
Mean Anonmoly50.6787
Mean Motion1.70472761
Decay Rate4.3E-07
L11 41859U 16069A 22268.46039758 .00000043 00000+0 00000+0 0 9996
L22 41859 54.8408 138.8100 0002682 309.4123 50.6787 1.70472761 36208

Live tracking and technical data element details for GSAT0207 (GALILEO 15) (NORAD 41859). GSAT0207 (GALILEO 15) can be tracked NOW for your location showing map with azimuth and elevation plus other details from your city location.

Track the satellite on the map from your city or location and see movement details for azimuth, elevation, latitude, longitude, range, height, and movement on the map or in text.







IsCatalogInMostPopularTable: catalog: 41859, numindb: 691
Update: records affected: 1



GetName: 41859 GSAT0207 (GALILEO 15)

Hit Count: updated at: Fri, 30 Sep 2022 04:17:34 GMT